ATLAS 5 CENTAUR DEB, 46668

Orbit data source: Space-Track

ATLAS 5 CENTAUR DEB, 46668 is space debris in HEO originally from a launch on Wed, 17 Oct 2018 UTC launched from the Air Force Eastern Test Range (AFETR). Debris objects in space refer to the collection of defunct objects orbiting the Earth. Examples of debris include non-operational satellites, rocket bodies, and fragments generated from explosions, collisions, or faulty payload assembly.

Not visible in the next 10 days
ATLAS 5 CENTAUR DEB details
Identifier
46668, 2018-079CW
Orbit
HEO
Last TLE update11 hours ago
Origin
Flag of USULA (US)
ManufacturerULA Decatur
MissionSpacecraft
Bus & MotorUnknown
MassUnknown
Launch date (UTC)
2018-10-17 (6 years ago)
Launch vehicleUnknown
Launch site
Air Force Eastern Test Range (AFETR)
Object type
Payload
Rocket body
Debris
Shape & HBRUnknown
Radar Cross SectionRCS unknown

Expand to show TLE details & history

TLE from 11 hours ago
0 ATLAS 5 CENTAUR DEB
1 46668U 18079CW  24361.43421543 -.00000133  00000-0  00000-0 0  9995
2 46668  12.6072  80.1937 4686096 229.2079  79.4685  1.83691760 28299
Epoch: 2024-12-26T10:25Z
Definitive object data (Epoch: 2024-12-26T10:25:16.213Z)
Latitude0.00001°
Longitude-171.58784°
Altitude25,318.984 km
Speed3.316 km/s
True Right ascension05h 20m 34s
True Declination0° 00' 00"
Sunlit
Object was in daylight at TLE epoch
Visualization TLE readout
Latitude-11.9789°
Longitude117.28772°
Altitude11,350.502 km
Speed5.551 km/s
Apparent Right ascension01h 38m 54s
Apparent Declination-26° 50' 26"
Sunlit
Object is in daylight
Visualization observer readout
Local Sidereal Time20:45:09
Azimuth120.786° SE
Elevation-5.429°
Doppler factor1
Orbital elements
Apogee altitude34,985.098 km
Perigee altitude8,588.418 km
Semi-major axis28,164.895 km
Eccentricity0.4686096
Inclination12.6072°
RAAN80.1937°
Arg. of periapsis229.2079°
True anomaly130.72952°
Mean anomaly79.4685°
Eccentric anomaly105.35894°
Mean motion0.45918 °/min
BSTARUnknown
Orbital period784.01 mins
Loading maneuver chart data...

ATLAS 5 CENTAUR DEB Visibility forecast

Observer location: undefined°, undefined

ATLAS 5 CENTAUR DEB is not visible in the next 10 days
Span
Click to sort rows by Start time (UTC) header in descending order
Start Az.
Max El. time (UTC)
Max El. Az.
Max El.
End time (UTC)
End Az.
|